When you browse on this site, cookies collect data to enhance your experience and personalize the content and advertising you see.
Visit our Privacy Policy to learn more. By continuing to use the site, you agree to this use of cookies and data.
  • In Spain
  • List of Countries
  • For 7 days
  • Water Temperature
  • Satellite Maps
  • Weather Map
  • Weather Widgets
  • user-avatar
    Login

    Hourly Weather Galata

    Today, 21 January, Monday

    Time Temperature Precipitation Wind Pressure Humidity
    00:00 +7°C° 0 mm 3 mps 755 mmHg 94%
    01:00 +5°C° 0 mm 3 mps 755 mmHg 94%
    02:00 +4°C° 0 mm 3 mps 755 mmHg 94%
    03:00 +4°C° 0 mm 4 mps 755 mmHg 92%
    04:00 +2°C° 0 mm 5 mps 755 mmHg 91%
    05:00 +2°C° 0 mm 6 mps 755 mmHg 89%
    06:00 +1°C° 0 mm 6 mps 755 mmHg 88%
    07:00 +1°C° 0 mm 6 mps 756 mmHg 87%
    08:00 +1°C° 0 mm 6 mps 756 mmHg 87%
    09:00 +1°C° 0 mm 6 mps 757 mmHg 82%
    10:00 +2°C° 0 mm 6 mps 757 mmHg 78%
    11:00 +3°C° 0 mm 6 mps 758 mmHg 74%
    12:00 +3°C° 0 mm 6 mps 758 mmHg 72%
    13:00 +3°C° 0 mm 5 mps 758 mmHg 70%
    14:00 +5°C° 0 mm 5 mps 758 mmHg 68%
    15:00 +4°C° 0 mm 4 mps 758 mmHg 70%
    16:00 +3°C° 0 mm 4 mps 759 mmHg 72%
    17:00 +3°C° 0 mm 4 mps 759 mmHg 74%
    18:00 +1°C° 0 mm 4 mps 759 mmHg 76%
    19:00 0°C° 0 mm 4 mps 760 mmHg 79%
    20:00 -1°C° 0 mm 4 mps 760 mmHg 82%
    21:00 0°C° 0 mm 3 mps 760 mmHg 82%
    22:00 0°C° 0 mm 3 mps 760 mmHg 83%
    23:00 0°C° 0 mm 3 mps 760 mmHg 84%

    Tomorrow, 22 January, Tuesday

    Time Temperature Precipitation Wind Pressure Humidity
    00:00 0°C° 0 mm 3 mps 760 mmHg 84%
    01:00 0°C° 0 mm 3 mps 760 mmHg 85%
    02:00 +1°C° 0 mm 2 mps 760 mmHg 86%
    03:00 +1°C° 0 mm 2 mps 760 mmHg 87%
    04:00 +1°C° 0 mm 2 mps 760 mmHg 87%
    05:00 +1°C° 0 mm 2 mps 759 mmHg 88%
    06:00 +1°C° 0 mm 2 mps 759 mmHg 88%
    07:00 +1°C° 0 mm 3 mps 759 mmHg 88%
    08:00 +1°C° 0 mm 3 mps 759 mmHg 88%
    09:00 +1°C° 0.1 mm 3 mps 759 mmHg 87%
    10:00 +1°C° 0.1 mm 4 mps 759 mmHg 85%
    11:00 +3°C° 0.1 mm 4 mps 758 mmHg 84%
    12:00 +3°C° 0.2 mm 4 mps 758 mmHg 84%
    13:00 +3°C° 0.2 mm 4 mps 757 mmHg 84%
    14:00 +3°C° 0.2 mm 4 mps 756 mmHg 84%
    15:00 +2°C° 0 mm 5 mps 756 mmHg 86%
    16:00 +2°C° 0 mm 5 mps 755 mmHg 88%
    17:00 +2°C° 0 mm 5 mps 755 mmHg 91%
    18:00 +3°C° 0.1 mm 5 mps 755 mmHg 92%
    19:00 +3°C° 0.1 mm 5 mps 754 mmHg 93%
    20:00 +3°C° 0.1 mm 5 mps 754 mmHg 94%
    21:00 +4°C° 0.1 mm 6 mps 753 mmHg 94%
    22:00 +4°C° 0.1 mm 6 mps 753 mmHg 94%
    23:00 +4°C° 0.1 mm 6 mps 752 mmHg 93%

    Day after tomorrow, 23 January, Wednesday

    Time Temperature Precipitation Wind Pressure Humidity
    00:00 +4°C° 0 mm 6 mps 752 mmHg 94%
    01:00 +4°C° 0 mm 6 mps 751 mmHg 94%
    02:00 +5°C° 0 mm 6 mps 751 mmHg 95%
    03:00 +5°C° 0.8 mm 6 mps 750 mmHg 95%
    04:00 +5°C° 0.8 mm 6 mps 749 mmHg 96%
    05:00 +5°C° 0.8 mm 6 mps 748 mmHg 97%
    06:00 +5°C° 2.4 mm 6 mps 748 mmHg 96%
    07:00 +6°C° 2.5 mm 7 mps 748 mmHg 94%
    08:00 +6°C° 2.4 mm 7 mps 747 mmHg 93%
    09:00 +8°C° 0 mm 7 mps 747 mmHg 89%
    10:00 +9°C° 0 mm 8 mps 747 mmHg 85%
    11:00 +10°C° 0 mm 8 mps 747 mmHg 81%
    12:00 +11°C° 0 mm 8 mps 747 mmHg 76%
    13:00 +12°C° 0 mm 7 mps 747 mmHg 72%
    14:00 +12°C° 0 mm 7 mps 747 mmHg 67%
    15:00 +12°C° 0 mm 7 mps 747 mmHg 71%
    16:00 +11°C° 0 mm 6 mps 747 mmHg 74%
    17:00 +10°C° 0 mm 5 mps 747 mmHg 78%
    18:00 +9°C° 0 mm 5 mps 747 mmHg 81%
    19:00 +9°C° 0 mm 6 mps 747 mmHg 84%
    20:00 +8°C° 0 mm 6 mps 747 mmHg 87%
    21:00 +8°C° 0 mm 6 mps 747 mmHg 88%
    22:00 +8°C° 0 mm 6 mps 747 mmHg 89%
    23:00 +8°C° 0 mm 6 mps 747 mmHg 90%

    24 January, Thursday

    Time Temperature Precipitation Wind Pressure Humidity
    00:00 +8°C° 0 mm 5 mps 747 mmHg 91%
    01:00 +8°C° 0 mm 5 mps 747 mmHg 92%
    02:00 +8°C° 0 mm 5 mps 747 mmHg 93%
    03:00 +8°C° 0.8 mm 5 mps 747 mmHg 94%
    04:00 +7°C° 0.8 mm 4 mps 747 mmHg 96%
    05:00 +7°C° 0.8 mm 4 mps 746 mmHg 97%
    06:00 +7°C° 0.2 mm 4 mps 746 mmHg 97%
    07:00 +7°C° 0.2 mm 4 mps 746 mmHg 96%
    08:00 +7°C° 0.2 mm 4 mps 746 mmHg 95%
    09:00 +8°C° 0 mm 5 mps 746 mmHg 90%
    10:00 +9°C° 0 mm 5 mps 746 mmHg 85%
    11:00 +10°C° 0 mm 5 mps 746 mmHg 80%
    12:00 +10°C° 0 mm 6 mps 746 mmHg 78%
    13:00 +10°C° 0 mm 6 mps 746 mmHg 76%
    14:00 +10°C° 0 mm 7 mps 745 mmHg 74%
    15:00 +9°C° 0 mm 7 mps 745 mmHg 79%
    16:00 +8°C° 0 mm 7 mps 745 mmHg 85%
    17:00 +6°C° 0 mm 7 mps 745 mmHg 90%
    18:00 +6°C° 0 mm 8 mps 746 mmHg 90%
    19:00 +6°C° 0 mm 9 mps 746 mmHg 90%
    20:00 +6°C° 0 mm 10 mps 747 mmHg 90%
    21:00 +6°C° 0.1 mm 10 mps 747 mmHg 90%
    22:00 +5°C° 0.1 mm 10 mps 748 mmHg 90%
    23:00 +5°C° 0.1 mm 10 mps 748 mmHg 90%

    25 January, Friday

    Time Temperature Precipitation Wind Pressure Humidity
    00:00 +5°C° 0.1 mm 10 mps 748 mmHg 90%
    01:00 +5°C° 0.1 mm 9 mps 748 mmHg 90%
    02:00 +5°C° 0.1 mm 9 mps 748 mmHg 90%
    03:00 +3°C° 0.1 mm 9 mps 748 mmHg 90%
    04:00 +3°C° 0.1 mm 9 mps 748 mmHg 90%
    05:00 +2°C° 0.1 mm 10 mps 748 mmHg 89%
    06:00 +2°C° 0.4 mm 9 mps 749 mmHg 90%
    07:00 +2°C° 0.4 mm 9 mps 749 mmHg 90%
    08:00 +2°C° 0.4 mm 9 mps 749 mmHg 90%
    09:00 +2°C° 0.1 mm 9 mps 750 mmHg 90%
    10:00 +2°C° 0.1 mm 9 mps 750 mmHg 90%
    11:00 +3°C° 0.1 mm 9 mps 750 mmHg 90%
    12:00 +3°C° 0.2 mm 9 mps 750 mmHg 91%
    13:00 +2°C° 0.2 mm 9 mps 749 mmHg 91%
    14:00 +2°C° 0.2 mm 9 mps 749 mmHg 92%
    15:00 +2°C° 0.5 mm 8 mps 749 mmHg 93%
    16:00 +4°C° 0.5 mm 8 mps 749 mmHg 94%
    17:00 +4°C° 0.5 mm 8 mps 749 mmHg 95%
    18:00 +4°C° 0.4 mm 8 mps 749 mmHg 95%
    19:00 +4°C° 0.4 mm 7 mps 749 mmHg 96%
    20:00 +5°C° 0.4 mm 7 mps 749 mmHg 96%
    21:00 +5°C° 0.1 mm 7 mps 748 mmHg 96%
    22:00 +5°C° 0.1 mm 6 mps 748 mmHg 96%
    23:00 +5°C° 0.1 mm 6 mps 748 mmHg 97%

    26 January, Saturday

    Time Temperature Precipitation Wind Pressure Humidity
    00:00 +7°C° 0.6 mm 6 mps 748 mmHg 97%
    01:00 +6°C° 0.6 mm 7 mps 747 mmHg 97%
    02:00 +6°C° 0.6 mm 7 mps 747 mmHg 96%
    03:00 +6°C° 0.8 mm 7 mps 746 mmHg 96%
    04:00 +7°C° 0.8 mm 6 mps 746 mmHg 96%
    05:00 +7°C° 0.8 mm 6 mps 746 mmHg 96%
    06:00 +7°C° 0.2 mm 5 mps 746 mmHg 96%
    07:00 +7°C° 0.2 mm 4 mps 746 mmHg 96%
    08:00 +8°C° 0.2 mm 3 mps 747 mmHg 96%
    09:00 +8°C° 0.1 mm 3 mps 747 mmHg 95%
    10:00 +8°C° 0.1 mm 2 mps 747 mmHg 94%
    11:00 +9°C° 0.1 mm 2 mps 747 mmHg 93%
    12:00 +8°C° 0.1 mm 3 mps 747 mmHg 92%
    13:00 +7°C° 0.1 mm 3 mps 747 mmHg 91%
    14:00 +5°C° 0.1 mm 4 mps 747 mmHg 90%
    15:00 +3°C° 0.2 mm 5 mps 748 mmHg 90%
    16:00 +2°C° 0.2 mm 5 mps 748 mmHg 89%
    17:00 +1°C° 0.2 mm 6 mps 748 mmHg 88%
    18:00 +1°C° 0.4 mm 6 mps 748 mmHg 88%
    19:00 -1°C° 0.4 mm 6 mps 748 mmHg 88%
    20:00 -1°C° 0.4 mm 6 mps 749 mmHg 87%
    21:00 -1°C° 0.2 mm 6 mps 749 mmHg 88%
    22:00 -1°C° 0.2 mm 6 mps 749 mmHg 88%
    23:00 -2°C° 0.2 mm 6 mps 749 mmHg 88%
    Show more